Regional Weather Roundup
Issued by NWS

Home | Current Version | Previous Version | Graphics & Text | Print | Product List | Glossary On
Versions: 1 2 3 4 5 6 7 8 9 10 11 12 13 14 15 16 17 18 19 20 21 22 23 24 25 26 27 28 29 30 31 32 33 34 35 36 37 38 39 40 41 42 43 44 45 46 47 48 49 50
000
ASUS43 KTOP 240359
RWRKS

WEATHER ROUNDUP FOR KANSAS
NATIONAL WEATHER SERVICE GOODLAND KS
1100 PM CDT SAT SEP 23 2017

NOTE:  "FAIR" INDICATES FEW OR NO CLOUDS BELOW 12,000 FEET WITH NO
SIGNIFICANT WEATHER AND/OR OBSTRUCTIONS TO VISIBILITY.

KSZ001>006-013>018-027>032-041>047-240500-
NORTHWEST KANSAS

CITY           SKY/WX    TMP DP  RH WIND       PRES   REMARKS
GOODLAND       LGT RAIN  59  59 100 E6        29.88R
HAYS           PTCLDY    76  59  55 S10       29.87R
HILL CITY      CLOUDY    74  61  63 W12       29.87R
RUSSELL        CLEAR     77  60  55 SE16      29.84F
$$

KSZ061>065-074>080-084>089-240500-
SOUTHWEST KANSAS

CITY           SKY/WX    TMP DP  RH WIND       PRES   REMARKS
DODGE CITY     CLOUDY    76  59  55 SE21G26   29.87F
ELKHART          N/A     62  63 100 SE17        N/A
GARDEN CITY    LGT RAIN  65  63  93 W7        29.90S FOG
GREAT BEND     CLOUDY    76  61  59 SE13      29.87S
LIBERAL        CLOUDY    67  63  87 N3        29.88F
$$

KSZ066>073-081>083-090>101-240500-
SOUTHEAST KANSAS

CITY           SKY/WX    TMP DP  RH WIND       PRES   REMARKS
CHANUTE        CLEAR     73  66  78 E7        29.95S
COFFEYVILLE    CLEAR     71  67  87 CALM      29.93S
HUTCHINSON     CLEAR     76  63  64 SE10      29.89F
MEDICINE LODGE   N/A     76  59  55 SE12      29.87F
NEWTON         CLEAR     71  63  75 SE9       29.93S
PARSONS        CLEAR     68  65  90 CALM      29.95S
WICHITA INTL   CLEAR     77  65  66 SE12      29.90F
WICHITA JABRA  CLEAR     74  65  73 SE8       29.91F
WINFIELD       CLEAR     76  66  71 SE8       29.93S
$$

KSZ007>012-019>026-033>040-048>060-102>105-240500-
NORTHEAST KANSAS

CITY           SKY/WX    TMP DP  RH WIND       PRES   REMARKS
CONCORDIA      CLEAR     77  62  59 SE15G23   29.88F
EMPORIA        CLEAR     73  63  70 SE8       29.93F
LAWRENCE       CLEAR     71  68  90 E6        29.94F
MANHATTAN      CLEAR     77  65  66 S8        29.90F
OLATHE IND     CLEAR     75  67  76 SE6       29.97S
OLATHE EXE     CLEAR     72  68  87 SE3       29.97S
SALINA         CLEAR     80  61  52 SE16      29.89R
TOPEKA BILLARD CLEAR     73  66  78 SE6       29.93F
TOPEKA FORBES  CLEAR     72  66  81 SE5       29.94F
$$




USA.gov is the U.S. government's official web portal to all federal, state and local government web resources and services.